Terminal Aerodrome Forecast
Issued by NWS Denver/Boulder, CO

Home | Current Version | Previous Version | Text Only | Print | Product List | Glossary On
Versions: 1 2 3 4 5 6 7 8 9 10 11 12 13 14 15 16 17 18 19 20 21 22 23 24 25 26 27 28 29 30 31 32 33 34 35 36 37 38 39 40 41 42 43 44 45 46 47 48 49 50
000
FTUS45 KBOU 170539
TAFDEN
TAF
KDEN 170539Z 1706/1812 22008KT P6SM OVC050
      TEMPO 1707/1709 SCT050 BKN110
     FM170900 19011KT P6SM FEW060 SCT120
     FM171800 14006KT P6SM FEW220
     FM180100 18007KT P6SM SKC
     FM180400 21008KT P6SM SKC=

USA.gov is the U.S. government's official web portal to all federal, state and local government web resources and services.